Find Local Weather

World > North America > United States > Pennsylvania

Lancaster, Pennsylvania Regional Weather

Lat: 40.04N, Lon: 76.3W
Wx Zone: PAZ066
Warning FLW WEATHER ALERT - (More Info. Click Here) Warning Warning FLW SPECIAL WEATHER STATEMENT (More Info. Click Here) Warning
Feedback
Expires:201805262200;;574573
ASUS41 KPHI 262113
RWRPHI

REGIONAL WEATHER ROUNDUP
NATIONAL WEATHER SERVICE MOUNT HOLLY NJ
500 PM EDT SAT MAY 26 2018

NOTE:  "FAIR" INDICATES FEW OR NO CLOUDS BELOW 12,000 FEET WITH NO
SIGNIFICANT WEATHER AND/OR OBSTRUCTIONS TO VISIBILITY.

 * = STATION DOES NOT REPORT PRECIPITATION (E.G. RAIN, SNOW, ETC.) 
        OR FOG.


PAZ043-044-047-054-055-060>062-066>071-262200-
EASTERN PENNSYLVANIA
  
CITY           SKY/WX    TMP DP  RH WIND       PRES   REMARKS
PHILADELPHIA   PTSUNNY   86  69  56 W6        29.79S THUNDER HX  90   
NORTH PHILA    PTSUNNY   90  69  50 S8        29.80S HX  94           
BLUE BELL*     FAIR      88  64  45 W6        29.81S                  
DOYLESTOWN     FAIR      88  62  41 VRB6      29.80R                  
QUAKERTOWN*    MOSUNNY   90  64  43 CALM      29.82R HX  91           
PERKASIE*      FAIR      86  64  48 W6        29.83R                  
POTTSTOWN      FAIR      87  62  43 SW7       29.82R                  
LANCASTER      FAIR      89  63  41 SW9G16    29.80R HX  90           
COATESVILLE    FAIR      86  64  48 VRB5      29.84R                  
READING        FAIR      89  67  47 W7        29.79S HX  92           
ALLENTOWN      FAIR      89  59  36 W6        29.80R                  
MOUNT POCONO   FAIR      80  50  34 NW8       29.89R                  
HAZLETON       FAIR      86  54  32 CALM      29.91R                  
LEHIGHTON      FAIR      88  54  31 W7        29.82S                  
WILKES BARRE   FAIR      87  53  31 CALM      29.83S                  

$$

SKY/WX - Weather  TMP - Temperature  DP - Dewpoint  RH - Relative Humidity
WIND - Wind Direction/Speed PRES - Barometric Pressure